Temperature
32 32 32 33 34 34 35 34 34 34 35 34 34 34 34 34 33 32 31 30 28 27 25 24 23 22 21 21 21 20 20 20 19 19 19 19 19 19 18 18 18 18 18 18
32 32 34 35 35 34 34 34 34 35 35 34 34 34 34 34 33 33 32 30 28 27 25 24 23 22 21 21 21 21 20 20 20 19 19 19 18 18 18 18 18 18 18 18
32 33 34 34 34 33 34 34 34 34 34 35 34 33 33 34 33 33 32 30 29 28 26 24 23 22 22 21 21 21 20 20 20 19 19 19 18 18 18 18 18 18 18 18
33 34 34 33 33 33 33 34 34 34 33 33 34 31 32 32 32 33 32 31 30 28 26 25 23 23 22 21 21 20 20 20 20 19 19 19 18 18 18 18 18 18 18 18
32 33 33 32 33 34 34 34 34 34 33 33 34 32 31 31 31 32 32 32 30 29 27 25 24 23 22 21 20 20 20 20 20 19 19 19 18 18 18 18 18 18 18 18
33 34 34 33 34 34 34 33 33 33 33 31 33 32 30 31 31 32 32 32 30 29 27 26 24 23 22 21 21 20 20 20 20 19 19 19 18 18 18 18 18 18 18 18
31 33 34 34 33 33 33 32 31 30 31 31 33 33 32 33 33 33 33 32 30 29 28 26 24 23 22 21 21 20 20 20 19 19 19 19 19 18 18 18 18 18 18 18
30 31 33 33 33 32 32 32 30 30 30 30 32 32 33 34 34 33 32 32 30 29 28 26 24 23 22 22 21 20 20 20 19 19 19 19 18 18 18 18 18 18 18 18
31 31 33 34 34 33 32 32 33 32 32 31 31 31 33 34 34 33 33 32 31 29 28 26 25 23 22 22 21 20 20 19 19 19 19 19 18 18 18 18 18 18 18 17
32 31 33 34 33 33 33 33 33 32 30 30 30 31 31 32 33 33 33 32 30 29 28 27 25 24 23 22 21 20 20 19 19 19 19 19 18 18 18 18 18 17 17 17
32 31 32 33 32 32 32 32 32 32 32 30 29 29 32 32 32 33 32 31 30 29 28 27 25 24 23 22 21 20 20 19 19 19 19 18 18 18 18 18 17 17 17 17
32 31 31 32 33 33 33 32 32 30 30 31 30 30 33 33 33 33 32 30 29 28 28 27 25 24 23 22 21 20 20 19 19 19 19 18 18 18 18 18 17 17 17 17
31 30 29 30 31 32 32 33 33 32 31 31 31 31 33 33 33 33 32 30 29 28 27 26 25 24 23 22 21 20 20 19 19 19 18 18 18 18 18 17 17 17 17 17
31 30 29 29 31 32 31 32 32 32 31 31 31 31 32 32 32 32 31 30 29 28 27 26 25 24 23 22 21 21 20 20 19 19 18 18 18 17 17 17 17 17 17 17
30 29 29 30 32 32 32 32 32 32 32 31 32 32 32 32 32 31 30 29 28 27 26 25 24 23 22 22 21 20 20 20 19 19 18 18 17 17 17 17 17 17 16 16
29 28 29 29 31 32 32 32 32 32 32 32 32 32 33 32 31 30 29 28 27 27 26 25 24 23 22 21 21 20 20 19 19 18 18 17 17 17 17 17 16 16 16 16
28 27 27 28 30 30 30 32 32 32 33 32 32 32 32 31 30 29 28 28 27 26 25 24 23 22 21 21 20 20 19 19 18 18 18 17 17 17 16 16 16 16 16 16
27 26 27 27 28 27 30 33 33 32 32 33 32 32 31 30 28 27 27 26 26 25 24 23 22 21 21 20 20 19 19 18 18 17 17 17 17 16 16 16 16 15 15 15
27 26 26 27 27 28 30 32 32 32 31 32 31 31 30 29 28 27 25 25 24 23 23 22 21 21 20 20 19 19 19 18 17 17 17 16 16 16 16 15 15 15 15 15
27 26 26 26 26 27 29 31 32 32 29 30 30 30 29 29 28 26 24 24 23 22 22 21 21 20 20 19 19 19 18 18 17 17 17 16 16 16 15 15 15 14 14 14
26 25 25 26 26 27 28 30 31 28 27 27 28 28 27 26 26 24 23 22 22 21 20 20 20 19 19 19 18 18 17 17 17 16 16 16 16 15 15 14 14 14 14 14
26 25 25 25 25 26 27 28 27 25 25 26 26 26 25 24 23 22 22 21 20 20 19 19 19 18 18 18 17 17 17 16 16 16 16 15 15 14 14 14 14 14 13 13
26 26 26 26 25 24 24 24 24 24 24 24 24 24 23 23 22 21 20 20 19 19 18 18 18 18 17 17 17 16 16 16 16 15 15 15 15 14 14 14 13 13 13 12
25 26 25 24 24 24 23 23 23 23 23 23 23 23 22 22 21 20 19 19 18 18 18 17 17 17 16 16 16 16 15 15 15 15 15 14 14 14 13 13 13 13 12 12
24 25 25 24 23 23 23 22 22 22 23 22 22 22 21 21 20 19 18 18 17 17 17 17 16 16 15 15 15 15 15 15 14 14 14 13 13 13 13 13 12 12 12 12
23 23 23 23 23 23 22 21 21 21 21 21 21 21 20 20 19 18 17 17 16 16 16 16 15 15 15 15 14 14 14 14 14 14 13 13 12 12 12 12 12 11 11 11
Wind_Speed
10 11 12 12 11 10 9 6 1 3 3 3 4 5 7 8 8 9 11 13 13 13 13 13 12 12 11 9 9 8 8 7 6 5 5 5 4 4 4 5 7 7 6 5
11 14 14 9 5 8 9 8 5 4 3 4 6 5 6 7 7 7 10 12 14 14 13 13 12 12 11 10 10 9 8 9 8 6 5 4 3 4 4 4 6 8 6 5
15 9 8 8 8 8 10 9 7 3 2 7 8 7 5 5 7 7 9 12 13 14 15 14 13 12 12 11 10 9 8 8 8 6 4 3 2 2 3 3 4 5 6 6
14 10 5 8 10 9 10 8 7 7 8 8 8 5 4 6 6 9 10 11 13 14 15 15 13 12 11 10 10 7 7 7 6 6 5 5 4 4 4 3 3 4 5 5
12 11 9 11 11 9 8 4 6 10 10 12 11 5 5 9 6 7 9 11 12 13 15 15 13 11 10 10 9 8 7 6 5 5 5 5 4 4 3 3 3 4 4 5
15 11 10 11 11 9 7 6 8 11 11 13 11 7 3 5 6 5 8 9 11 12 13 14 13 12 10 10 9 8 7 6 5 5 5 4 4 4 3 4 4 4 4 4
15 14 11 11 12 11 10 9 7 8 9 9 8 6 3 6 6 5 7 9 11 12 13 13 13 12 11 10 9 9 8 6 5 5 4 3 4 4 4 4 4 4 4 4
16 15 15 13 14 11 13 13 11 8 6 4 6 4 4 8 7 6 7 9 11 12 13 14 13 12 11 11 10 9 8 7 6 5 4 3 3 3 3 4 4 4 3 4
13 15 16 15 14 15 13 14 16 15 14 9 4 4 5 9 8 7 8 10 11 12 13 14 14 13 11 10 9 9 8 7 6 5 4 3 3 3 2 2 3 2 2 3
14 11 13 16 13 16 16 13 10 11 10 9 5 6 4 8 8 8 8 10 12 12 13 14 13 13 12 11 9 9 8 7 5 5 4 4 3 2 1 1 1 1 1 1
19 12 11 14 15 15 15 15 11 9 10 10 6 2 3 5 5 7 8 9 11 11 13 13 12 12 12 11 11 9 8 7 6 5 4 3 3 3 2 2 2 1 1 1
16 11 12 14 14 15 15 16 14 10 8 10 9 3 5 5 7 7 9 10 9 9 10 13 14 12 11 11 11 10 9 8 6 5 5 4 3 3 3 3 3 2 2 1
12 10 11 13 14 16 15 15 15 15 11 11 11 2 6 4 4 8 9 11 10 10 10 12 12 12 10 10 9 9 9 8 7 6 6 5 3 3 3 3 3 3 2 2
7 10 13 14 12 14 16 16 16 16 12 12 11 6 7 6 5 7 10 10 9 10 10 11 11 11 10 9 9 9 8 7 7 6 6 5 4 3 4 3 3 3 2 2
7 12 15 17 16 13 14 16 17 17 15 13 10 7 6 6 7 8 9 9 9 10 10 11 11 10 10 9 8 8 7 7 7 6 6 5 5 4 4 4 4 4 3 3
9 10 13 17 18 17 14 14 15 16 15 15 13 7 2 5 8 8 8 9 9 9 10 10 11 11 10 10 9 8 8 7 7 6 6 5 5 5 5 5 4 4 4 4
12 8 11 14 16 17 17 14 14 13 13 13 12 7 3 6 7 7 6 7 9 9 9 9 9 10 9 8 8 9 8 8 7 6 6 6 6 5 5 5 5 4 4 4
8 8 9 13 14 17 13 13 14 14 12 11 6 2 3 7 7 7 6 6 7 8 8 8 8 9 10 9 8 8 9 8 7 7 6 6 6 5 5 5 5 4 4 4
9 7 9 11 15 14 11 10 11 11 8 5 3 3 4 6 8 6 6 6 7 7 8 8 8 8 8 9 9 9 9 8 7 7 6 6 6 6 6 6 5 5 5 6
12 8 10 11 12 11 7 7 6 7 6 2 1 2 3 4 4 4 6 7 8 8 9 9 8 8 8 7 9 9 9 8 7 7 6 6 6 6 6 6 5 5 5 6
15 13 14 15 12 7 5 5 5 7 2 5 5 3 4 4 4 7 9 9 9 9 11 10 9 8 7 7 8 9 9 8 7 7 7 7 7 7 7 6 5 5 6 6
14 14 14 14 13 6 5 1 2 5 7 7 6 7 8 9 10 9 10 10 10 10 10 10 9 9 7 7 8 9 8 8 8 7 8 7 7 6 7 6 6 6 6 6
11 7 7 5 3 6 8 7 6 6 7 6 6 7 8 8 8 9 10 9 9 9 9 8 9 9 8 7 8 9 8 8 9 8 8 8 8 7 6 5 5 4 4 4
6 3 2 2 5 6 7 7 6 6 6 5 6 6 7 7 8 9 9 8 8 8 8 7 8 9 8 8 8 8 8 9 9 8 8 8 8 8 8 6 6 5 5 4
3 4 5 4 4 4 5 5 5 5 5 6 6 6 7 8 8 9 8 8 8 7 7 7 8 8 8 8 8 8 8 8 9 8 8 8 8 9 9 9 8 8 7 6
3 3 3 2 1 2 4 4 4 4 5 5 5 6 7 8 9 8 7 7 8 8 7 7 8 8 8 8 8 7 7 8 8 7 7 7 7 7 8 8 9 15 12 14
Wind_Direction
219 233 238 239 239 270 297 311 312 132 134 257 239 183 164 166 176 164 163 159 162 166 162 155 156 158 159 159 163 172 181 174 176 181 188 195 196 194 197 194 183 194 212 211
221 231 243 260 277 280 280 277 257 181 143 265 265 237 182 171 172 168 165 159 162 161 158 156 159 163 166 165 169 176 184 180 186 187 187 193 193 204 199 202 181 193 201 211
229 229 223 244 246 249 258 267 289 296 207 242 253 246 206 172 164 162 167 163 165 165 161 162 168 172 170 169 175 180 179 179 188 183 184 188 180 214 206 196 183 199 203 215
235 237 223 233 240 239 250 261 291 292 276 274 254 249 175 176 192 178 173 169 168 165 162 165 171 171 171 169 171 168 168 174 180 181 191 192 197 208 208 199 187 196 204 214
229 226 226 231 238 238 262 306 280 274 273 276 275 263 180 171 203 182 168 165 163 160 161 164 167 164 163 162 162 161 159 164 170 181 191 203 214 215 208 195 187 200 207 216
245 226 222 232 238 237 255 268 265 263 265 262 262 268 178 165 179 165 159 153 154 156 156 156 155 152 155 158 159 158 155 162 172 186 192 204 220 223 217 200 192 205 207 214
231 231 217 230 235 220 230 240 243 242 238 254 254 250 171 137 148 160 146 148 150 151 150 148 149 154 158 161 158 155 155 163 172 181 191 197 216 225 220 212 204 211 207 208
213 220 214 215 231 221 217 237 247 260 259 259 261 250 142 127 123 129 143 144 146 147 147 149 153 155 160 161 157 154 155 162 170 174 183 186 204 223 220 215 215 218 221 213
217 220 205 207 219 238 226 228 251 265 273 274 214 236 160 138 141 150 154 148 149 149 149 151 154 156 158 158 153 151 150 156 165 168 171 176 190 212 216 201 218 224 219 215
253 242 209 195 209 229 245 245 246 262 279 286 256 238 191 150 155 155 154 148 144 149 151 150 152 154 153 152 146 143 145 149 153 155 165 163 166 159 151 167 148 191 252 258
240 250 224 198 203 221 222 243 253 265 268 274 277 347 74 144 153 158 156 145 144 154 150 147 145 147 148 147 147 144 143 146 148 147 148 129 139 136 132 102 92 97 74 48
225 240 240 215 207 224 231 227 235 244 260 276 277 226 165 157 175 164 136 130 138 142 143 143 144 146 148 150 149 148 149 150 150 145 137 124 121 118 116 105 99 97 97 86
212 235 238 225 211 209 233 234 234 236 239 249 264 182 153 176 164 143 134 134 139 143 142 138 141 144 149 147 144 144 148 150 148 144 137 129 120 110 102 95 93 93 92 87
227 229 237 233 221 206 214 232 236 241 241 243 243 194 185 177 154 136 134 137 144 144 142 142 140 140 141 139 138 142 146 146 142 137 133 129 125 115 106 97 86 81 80 84
230 229 240 258 266 248 225 222 227 236 248 254 256 237 198 163 152 138 138 143 148 150 149 146 146 141 141 139 141 141 138 133 130 131 128 127 124 114 107 103 94 86 75 76
220 246 239 248 257 260 249 230 226 230 238 249 257 260 128 114 115 122 135 148 153 158 154 149 147 146 145 146 146 140 135 130 128 129 124 119 116 112 107 103 94 89 78 66
203 228 243 244 244 252 245 237 236 237 236 243 252 241 176 123 117 122 134 150 157 158 152 149 146 144 141 142 137 139 134 133 133 127 122 119 117 113 108 106 98 92 86 74
208 214 237 248 249 243 245 240 239 241 243 245 237 192 110 109 111 107 119 143 144 143 142 138 142 143 146 142 140 136 136 136 133 126 121 120 125 123 114 104 94 85 79 74
203 212 234 241 243 239 240 238 233 232 238 258 221 166 136 141 126 114 108 121 129 132 132 130 131 134 136 140 140 134 133 130 126 122 118 117 117 113 108 100 89 82 80 76
198 200 231 240 246 244 240 234 243 227 212 327 27 118 157 176 184 135 118 114 118 120 120 119 121 119 119 127 133 129 126 120 116 114 111 107 104 103 102 98 93 88 86 84
197 201 222 240 243 241 305 291 229 219 174 39 27 60 88 79 79 102 108 104 106 113 116 116 115 114 109 111 117 118 115 113 112 111 105 99 97 100 101 99 97 97 93 91
203 206 215 232 241 235 350 286 73 70 58 53 50 63 80 89 98 105 107 107 107 108 112 116 113 108 105 109 115 115 113 111 109 105 102 99 95 95 97 98 96 98 101 100
211 219 217 222 199 78 57 66 66 74 69 59 62 76 87 99 104 106 109 108 108 108 111 115 115 110 104 105 110 114 113 113 112 106 102 96 91 84 86 90 95 98 97 98
204 215 215 145 122 99 82 70 57 65 70 66 73 88 98 104 106 107 106 107 108 111 115 116 117 115 107 103 104 109 114 116 116 114 110 105 100 87 68 59 60 61 52 68
224 204 202 183 149 118 95 78 60 62 67 76 78 86 99 107 112 111 110 112 111 110 110 114 112 112 110 108 108 110 116 118 119 118 115 109 98 92 78 66 53 62 54 55
269 259 234 216 147 133 110 96 75 73 73 78 90 96 99 105 109 109 107 108 111 110 107 110 112 115 117 115 112 111 118 124 127 126 124 118 115 111 106 97 80 58 65 64
Height
1502 1503 1500 1493 1488 1487 1486 1487 1490 1488 1485 1490 1492 1493 1493 1495 1500 1504 1509 1515 1521 1526 1531 1534 1537 1540 1541 1543 1544 1546 1548 1550 1552 1553 1555 1557 1559 1561 1562 1564 1565 1566 1567 1569
1500 1501 1492 1487 1487 1489 1489 1492 1490 1486 1485 1490 1491 1491 1489 1493 1497 1501 1506 1512 1518 1524 1529 1533 1536 1538 1540 1541 1543 1544 1546 1548 1550 1552 1554 1556 1557 1559 1560 1562 1563 1564 1565 1567
1498 1491 1488 1490 1492 1495 1494 1493 1490 1490 1487 1486 1491 1496 1492 1492 1496 1501 1505 1509 1515 1520 1526 1531 1534 1537 1539 1540 1541 1543 1545 1547 1548 1550 1552 1554 1556 1557 1559 1559 1560 1562 1563 1564
1492 1487 1489 1492 1494 1494 1499 1488 1489 1491 1496 1498 1492 1510 1498 1495 1497 1498 1502 1507 1511 1517 1523 1528 1532 1535 1537 1539 1541 1542 1544 1545 1547 1549 1550 1552 1553 1554 1556 1557 1558 1559 1560 1562
1491 1488 1491 1495 1492 1491 1492 1487 1491 1493 1496 1500 1492 1502 1503 1494 1500 1497 1499 1503 1509 1514 1520 1526 1530 1533 1536 1538 1540 1541 1542 1544 1545 1547 1548 1550 1551 1552 1554 1555 1555 1556 1558 1559
1486 1484 1487 1489 1488 1489 1489 1493 1495 1495 1498 1512 1498 1502 1510 1497 1497 1496 1498 1502 1507 1513 1518 1524 1528 1532 1535 1538 1540 1540 1541 1543 1544 1545 1546 1548 1549 1550 1551 1552 1553 1554 1555 1556
1492 1486 1485 1488 1491 1491 1493 1505 1518 1520 1519 1515 1491 1497 1500 1487 1487 1492 1495 1500 1506 1512 1517 1523 1527 1531 1534 1537 1539 1540 1540 1542 1543 1544 1545 1546 1547 1548 1549 1550 1551 1552 1553 1554
1499 1498 1486 1486 1490 1493 1496 1501 1519 1528 1524 1516 1499 1500 1490 1481 1486 1491 1495 1500 1505 1511 1516 1522 1526 1530 1533 1536 1538 1539 1540 1541 1542 1543 1544 1545 1546 1546 1547 1548 1549 1550 1551 1552
1487 1491 1478 1481 1485 1487 1493 1497 1491 1500 1503 1511 1507 1499 1486 1482 1486 1490 1494 1499 1504 1510 1515 1520 1525 1529 1532 1535 1537 1538 1539 1541 1542 1543 1543 1544 1545 1546 1546 1547 1547 1548 1549 1550
1476 1486 1475 1477 1483 1485 1485 1486 1493 1503 1517 1524 1512 1504 1498 1490 1489 1490 1493 1498 1504 1509 1514 1519 1524 1528 1532 1534 1536 1538 1539 1540 1541 1542 1543 1544 1544 1545 1545 1546 1546 1547 1548 1549
1475 1485 1480 1478 1486 1489 1490 1492 1493 1495 1499 1515 1525 1519 1489 1489 1488 1489 1493 1498 1503 1508 1513 1518 1523 1527 1531 1534 1536 1537 1539 1540 1541 1542 1543 1543 1544 1544 1545 1545 1546 1546 1547 1548
1474 1480 1485 1480 1475 1478 1481 1487 1491 1507 1508 1502 1510 1511 1484 1485 1486 1489 1493 1499 1503 1509 1512 1517 1522 1527 1530 1533 1535 1537 1538 1540 1541 1541 1542 1543 1544 1544 1544 1545 1545 1545 1546 1547
1474 1482 1496 1493 1486 1481 1483 1481 1483 1487 1494 1503 1508 1506 1484 1485 1485 1489 1494 1500 1505 1510 1514 1517 1521 1525 1530 1532 1535 1537 1538 1540 1541 1541 1542 1543 1543 1544 1544 1544 1545 1545 1546 1546
1474 1481 1490 1495 1487 1479 1485 1483 1481 1485 1496 1498 1496 1497 1487 1485 1487 1490 1495 1501 1506 1510 1514 1518 1521 1525 1529 1532 1534 1536 1538 1540 1540 1541 1542 1542 1543 1544 1544 1544 1545 1545 1545 1545
1476 1484 1484 1479 1472 1470 1474 1478 1479 1484 1485 1491 1488 1486 1484 1483 1486 1491 1496 1501 1506 1510 1514 1518 1521 1525 1528 1531 1534 1536 1538 1539 1540 1541 1541 1542 1543 1543 1544 1544 1545 1545 1545 1545
1479 1484 1484 1485 1475 1472 1473 1472 1474 1477 1479 1481 1482 1484 1479 1483 1487 1493 1497 1502 1506 1511 1514 1518 1521 1524 1527 1530 1532 1535 1537 1538 1539 1540 1541 1542 1543 1543 1544 1544 1544 1545 1545 1545
1480 1488 1492 1490 1479 1477 1483 1473 1473 1474 1473 1477 1483 1481 1479 1483 1489 1494 1498 1502 1506 1510 1514 1518 1521 1523 1526 1529 1531 1533 1535 1537 1538 1540 1541 1542 1542 1543 1544 1544 1544 1545 1545 1545
1482 1489 1490 1490 1489 1501 1478 1463 1465 1470 1471 1471 1475 1478 1482 1487 1492 1496 1499 1503 1506 1510 1514 1517 1520 1523 1525 1528 1530 1533 1535 1537 1538 1539 1541 1541 1542 1543 1543 1544 1544 1545 1545 1545
1479 1487 1491 1492 1493 1487 1473 1465 1465 1471 1475 1472 1475 1479 1484 1489 1493 1498 1501 1503 1507 1510 1513 1517 1520 1522 1525 1527 1530 1532 1534 1536 1538 1539 1540 1541 1542 1543 1543 1543 1544 1544 1544 1544
1478 1483 1492 1491 1497 1496 1478 1465 1464 1469 1482 1478 1479 1482 1486 1488 1493 1500 1503 1504 1507 1510 1513 1516 1519 1522 1524 1527 1529 1531 1533 1535 1537 1538 1539 1541 1542 1542 1543 1543 1544 1544 1544 1544
1482 1487 1491 1492 1492 1485 1474 1468 1469 1485 1490 1483 1484 1486 1489 1491 1496 1501 1503 1506 1508 1511 1514 1516 1519 1521 1524 1527 1528 1530 1532 1534 1536 1538 1539 1540 1541 1542 1543 1543 1544 1544 1544 1544
1478 1484 1489 1489 1493 1492 1477 1473 1480 1487 1486 1487 1489 1490 1492 1496 1499 1502 1505 1507 1509 1512 1514 1517 1519 1522 1524 1527 1528 1530 1532 1534 1535 1537 1539 1540 1541 1542 1543 1543 1544 1544 1544 1545
1471 1474 1475 1480 1485 1484 1482 1484 1487 1488 1490 1491 1492 1494 1496 1499 1502 1504 1506 1509 1511 1513 1515 1518 1520 1522 1525 1527 1529 1530 1532 1534 1535 1537 1538 1539 1541 1542 1543 1543 1544 1545 1545 1545
1470 1472 1474 1480 1482 1485 1486 1488 1490 1491 1493 1495 1496 1497 1499 1501 1504 1506 1508 1511 1513 1515 1517 1519 1521 1523 1525 1527 1529 1530 1532 1533 1535 1537 1538 1539 1540 1541 1542 1543 1544 1544 1545 1546
1472 1473 1474 1480 1484 1486 1489 1491 1492 1494 1495 1497 1498 1499 1501 1503 1505 1508 1510 1512 1514 1516 1518 1520 1521 1523 1525 1527 1529 1530 1532 1533 1535 1537 1538 1539 1541 1541 1542 1543 1544 1544 1545 1546
1476 1477 1479 1482 1484 1487 1491 1492 1495 1496 1497 1499 1500 1501 1503 1505 1506 1509 1511 1513 1514 1516 1518 1520 1522 1524 1526 1527 1529 1530 1532 1534 1535 1537 1538 1540 1541 1542 1543 1543 1544 1545 1546 1547